Regional Weather Roundup
Issued by NWS Kansas City/Pleasant Hill, MO

Home | Current Version | Previous Version | Graphics & Text | Print | Product List | Glossary Off
Versions: 1 2 3 4 5 6 7 8 9 10 11 12 13 14 15 16 17 18 19 20 21 22 23 24 25 26 27 28 29 30 31 32 33 34 35 36 37 38 39 40 41 42 43 44 45 46 47 48 49 50

000
ASUS43 KEAX 051110
RWREAX

WEATHER ROUNDUP FOR EASTERN KANSAS AND NORTHWEST MISSOURI
NATIONAL WEATHER SERVICE KANSAS CITY/PLEASANT HILL MO
500 AM CST FRI FEB 05 2016

KSZ040-057-103>105-MOZ028-029-037-043-051200-
...KANSAS CITY METROPOLITAN AREA...

CITY           SKY/WX    TMP DP  RH WIND       PRES   REMARKS
K.C. INTL      CLOUDY    24  20  84 NE6       30.35S WCI  17
K.C. DOWNTOWN  PTCLDY    26  20  77 E3        30.38R
LEES SUMMIT    CLOUDY    24  20  84 E5        30.37R WCI  18
OLATHE - IXD   CLOUDY    22  19  89 SE5       30.37R WCI  16
OLATHE - OJC   CLOUDY    24  19  81 E5        30.36S WCI  18
LAWRENCE       CLOUDY    21  18  88 CALM      30.38R

$$

MOZ001>008-011>017-020>025-030>033-038>040-044>046-053-054-051200-
...NORTHERN AND CENTRAL MISSOURI...

CITY           SKY/WX    TMP DP  RH WIND       PRES   REMARKS
ST. JOSEPH     CLOUDY    21  19  92 CALM      30.37S
MOSBY          MOSUNNY   23  23 100 CALM      30.38S
WARRENSBURG    MOCLDY    25  21  86 CALM      30.39R
WHITEMAN AFB   PTCLDY    24  21  90 E2        30.37S
CLINTON          N/A     27  23  86 NE3       30.39S
SEDALIA        CLOUDY    24  19  81 CALM      30.39R
WARSAW         NOT AVBL
CHILLICOTHE      N/A     23  20  88 CALM      30.40R
KIRKSVILLE     PTCLDY    21  16  81 NW6       30.38R WCI  13

$$

MOZ041-047>049-056>058-063>065-088>090-097-051200-
...EASTERN AND SOUTHERN MISSOURI...

CITY           SKY/WX    TMP DP  RH WIND       PRES   REMARKS
ST. LOUIS INTL CLEAR     29  20  69 NW7       30.37R WCI  22
SPIRIT OF STL  CLEAR     24  19  81 W3        30.38R
COLUMBIA       CLOUDY    25  20  81 CALM      30.38R
JEFFERSON CITY PTCLDY    23  19  85 CALM      30.40R
ROLLA          PTCLDY    25  18  74 W5        30.35R WCI  19
OSAGE BEACH    CLOUDY    21  14  73 CALM      30.38R
SPRINGFIELD    CLOUDY    23  15  71 SE3       30.34S
BRANSON        CLOUDY    32  12  43 CALM      30.37R
JOPLIN         CLOUDY    28  16  60 CALM      30.36R
WEST PLAINS    CLOUDY    25  15  66 W3        30.37R

$$

IAZ060-094-KSZ022-034>040-054-083-096-NEZ052-066-093-051200-
...KANSAS...SOUTHEAST NEBRASKA AND IOWA...

CITY           SKY/WX    TMP DP  RH WIND       PRES   REMARKS
TOPEKA         CLOUDY    25  19  78 CALM      30.37S
MANHATTAN      CLOUDY    22  20  92 CALM      30.36R
EMPORIA        PTCLDY    23  20  88 NE3       30.34S
CHANUTE        CLOUDY    24  19  81 CALM      30.36R
WICHITA        CLOUDY    29  20  69 N5        30.33R WCI  24
OMAHA          CLOUDY    19  16  88 S5        30.34S WCI  12
LINCOLN        PTCLDY    14   9  80 CALM      30.35R
FALLS CITY     CLOUDY    22  19  89 CALM      30.36R
LAMONI         PTCLDY    19  15  84 NE5       30.35S WCI  12
DES MOINES     CLOUDY    16  12  84 CALM      30.36S

$$




USA.gov is the U.S. government's official web portal to all federal, state and local government web resources and services.